Multibeam Report for USF2001Mudhole


Ship Name: Bellows
Chief Scientist: Naar, David F.
University of South Florida
Source Organization: University of South Florida (USF)
Start Date: 2001-03-01
End Date: 2002-04-13


View ISO Metadata

Visit the full NCEI Bathymetry Viewer


Multibeam Bathymetry

Cruise Details

Project:
Instrument: Simrad EM3000

Data Quality

Number of Files: 729
Number of Records: 3923202
BATHYMETRY DATA Quantity Percentage
Number of Beams 498246654 100%
Number of Good Beams 470918269 94.52%
Number of Zero Beams 27328385 5.48%
Number of Flagged Beams 0 0%
AMPLITUDE DATA Quantity Percentage
Number of Beams 498246654 100%
Number of Good Beams 470918269 94.52%
Number of Zero Beams 27328385 5.48%
Number of Flagged Beams 0 0%
SIDESCAN DATA Quantity Percentage
Number of Pixels 4017358848 100%
Number of Good Pixels 2293815130 57.1%
Number of Zero Pixels 1723543718 42.9%
Number of Flagged Pixels 0 0%

Navigation Totals

Total Time: 108.7442 hours
Total Track Length: 1796.7767 km
Average Speed: 16.523 km/hr (8.9217 knots)

Cruise Bounds

Northern Extent: 27.616089
Southern Extent: 25.681608
Western Extent: -82.88193
Eastern Extent: -81.58424

Limits

Minimum Sonar Depth -2.17 Maximum Sonar Depth 5.09
Minimum Altitude -1.46 Maximum Altitude 23.77
Minimum Depth 0.86 Maximum Depth 27.81
Minimum Amplitude 0 Maximum Amplitude 71
Minimum Sidescan 0 Maximum Sidescan 77.5

File Information

Full Resolution Bathymetry as collected (raw): 726

Files File Size Description
0001_20020409_205428_raw.all.mb56.gz 17.17MB Simrad multibeam vendor format
0001_20020410_022921_raw.all.mb56.gz 10.08MB Simrad multibeam vendor format
0001_20020410_103259_raw.all.mb56.gz 30.01MB Simrad multibeam vendor format
0001_20020411_030740_raw.all.mb56.gz 43.43MB Simrad multibeam vendor format
0001_20020411_231642_raw.all.mb56.gz 7.23MB Simrad multibeam vendor format
0001_20020412_000233_raw.all.mb56.gz 8.99MB Simrad multibeam vendor format
0001_20020412_053538_raw.all.mb56.gz 4.28MB Simrad multibeam vendor format
0001_20020412_080912_raw.all.mb56.gz 24.66MB Simrad multibeam vendor format
0001_20020412_220332_raw.all.mb56.gz 0.91MB Simrad multibeam vendor format
0001_20020413_051202_raw.all.mb56.gz 13.06MB Simrad multibeam vendor format
0001_20020413_133344_raw.all.mb56.gz 2.87MB Simrad multibeam vendor format
0002_20010301_195026_raw.all.mb56.gz 9.77MB Simrad multibeam vendor format
0002_20010302_004825_raw.all.mb56.gz 56.45MB Simrad multibeam vendor format
0002_20010312_164909_raw.all.mb56.gz 5.42MB Simrad multibeam vendor format
0002_20020409_210406_raw.all.mb56.gz 94.75MB Simrad multibeam vendor format
0002_20020410_023620_raw.all.mb56.gz 7.76MB Simrad multibeam vendor format
0002_20020410_105302_raw.all.mb56.gz 11.39MB Simrad multibeam vendor format
0002_20020411_033200_raw.all.mb56.gz 40.31MB Simrad multibeam vendor format
0002_20020411_232042_raw.all.mb56.gz 15.76MB Simrad multibeam vendor format
0002_20020412_000724_raw.all.mb56.gz 5.81MB Simrad multibeam vendor format
0002_20020412_053806_raw.all.mb56.gz 16.06MB Simrad multibeam vendor format
0002_20020412_082339_raw.all.mb56.gz 12.45MB Simrad multibeam vendor format
0002_20020412_220405_raw.all.mb56.gz 24.31MB Simrad multibeam vendor format
0002_20020413_051943_raw.all.mb56.gz 5.13MB Simrad multibeam vendor format
0002_20020413_134136_raw.all.mb56.gz 7.40MB Simrad multibeam vendor format
0003_20010301_202108_raw.all.mb56.gz 8.89MB Simrad multibeam vendor format
0003_20010301_233214_raw.all.mb56.gz 63.82MB Simrad multibeam vendor format
0003_20010302_002813_raw.all.mb56.gz 20.08MB Simrad multibeam vendor format
0003_20010302_011141_raw.all.mb56.gz 49.62MB Simrad multibeam vendor format
0003_20010302_112936_raw.all.mb56.gz 6.91MB Simrad multibeam vendor format
0003_20010302_132449_raw.all.mb56.gz 360.3KB Simrad multibeam vendor format
0003_20010302_135025_raw.all.mb56.gz 51.2KB Simrad multibeam vendor format
0003_20010302_162512_raw.all.mb56.gz 19.96MB Simrad multibeam vendor format
0003_20010302_164443_raw.all.mb56.gz 33.52MB Simrad multibeam vendor format
0003_20010302_205520_raw.all.mb56.gz 13.63MB Simrad multibeam vendor format
0003_20010302_211947_raw.all.mb56.gz 12.54MB Simrad multibeam vendor format
0003_20010302_220946_raw.all.mb56.gz 10.56MB Simrad multibeam vendor format
0003_20010303_010505_raw.all.mb56.gz 1.35MB Simrad multibeam vendor format
0003_20010303_012959_raw.all.mb56.gz 8.57MB Simrad multibeam vendor format
0003_20010303_024446_raw.all.mb56.gz 48.85MB Simrad multibeam vendor format
0003_20010303_042516_raw.all.mb56.gz 37.99MB Simrad multibeam vendor format
0003_20010303_065450_raw.all.mb56.gz 22.98MB Simrad multibeam vendor format
0003_20010303_110500_raw.all.mb56.gz 147.2KB Simrad multibeam vendor format
0003_20010303_121936_raw.all.mb56.gz 67.7KB Simrad multibeam vendor format
0003_20010303_140541_raw.all.mb56.gz 3.65MB Simrad multibeam vendor format
0003_20010303_142447_raw.all.mb56.gz 23.24MB Simrad multibeam vendor format
0003_20010303_151516_raw.all.mb56.gz 41.37MB Simrad multibeam vendor format
0003_20010303_153926_raw.all.mb56.gz 381.7KB Simrad multibeam vendor format
0003_20010303_165451_raw.all.mb56.gz 40.84MB Simrad multibeam vendor format
0003_20010303_171946_raw.all.mb56.gz 32.4KB Simrad multibeam vendor format
0003_20010303_210440_raw.all.mb56.gz 143.4KB Simrad multibeam vendor format
0003_20010303_221932_raw.all.mb56.gz 189.6KB Simrad multibeam vendor format
0003_20010312_004339_raw.all.mb56.gz 14.00MB Simrad multibeam vendor format
0003_20010312_014030_raw.all.mb56.gz 12.88MB Simrad multibeam vendor format
0003_20010312_043534_raw.all.mb56.gz 5.52MB Simrad multibeam vendor format
0003_20010312_055037_raw.all.mb56.gz 16.39MB Simrad multibeam vendor format
0003_20010312_114350_raw.all.mb56.gz 23.05MB Simrad multibeam vendor format
0003_20010312_121634_raw.all.mb56.gz 8.37MB Simrad multibeam vendor format
0003_20010312_153522_raw.all.mb56.gz 8.04MB Simrad multibeam vendor format
0003_20010312_155748_raw.all.mb56.gz 11.03MB Simrad multibeam vendor format
0003_20010312_165309_raw.all.mb56.gz 1.15MB Simrad multibeam vendor format
0003_20010312_174942_raw.all.mb56.gz 1.95MB Simrad multibeam vendor format
0003_20010312_201418_raw.all.mb56.gz 8.39MB Simrad multibeam vendor format
0003_20010312_201558_raw.all.mb56.gz 14.20MB Simrad multibeam vendor format
0003_20010312_223337_raw.all.mb56.gz 11.76MB Simrad multibeam vendor format
0003_20010312_233220_raw.all.mb56.gz 10.32MB Simrad multibeam vendor format
0003_20010312_233843_raw.all.mb56.gz 28.36MB Simrad multibeam vendor format
0003_20010313_013630_raw.all.mb56.gz 16.87MB Simrad multibeam vendor format
0003_20010313_031629_raw.all.mb56.gz 23.82MB Simrad multibeam vendor format
0003_20010313_043111_raw.all.mb56.gz 26.09MB Simrad multibeam vendor format
0003_20010313_102100_raw.all.mb56.gz 1.10MB Simrad multibeam vendor format
0003_20010313_113618_raw.all.mb56.gz 18.01MB Simrad multibeam vendor format
0003_20010313_123902_raw.all.mb56.gz 23.89MB Simrad multibeam vendor format
0003_20010313_172228_raw.all.mb56.gz 2.69MB Simrad multibeam vendor format
0003_20010313_172839_raw.all.mb56.gz 12.83MB Simrad multibeam vendor format
0003_20020409_215445_raw.all.mb56.gz 22.86MB Simrad multibeam vendor format
0003_20020410_024139_raw.all.mb56.gz 4.01MB Simrad multibeam vendor format
0003_20020410_110107_raw.all.mb56.gz 3.22MB Simrad multibeam vendor format
0003_20020411_035456_raw.all.mb56.gz 1.03MB Simrad multibeam vendor format
0003_20020411_232955_raw.all.mb56.gz 5.03MB Simrad multibeam vendor format
0003_20020412_001040_raw.all.mb56.gz 15.14MB Simrad multibeam vendor format
0003_20020412_054730_raw.all.mb56.gz 4.21MB Simrad multibeam vendor format
0003_20020412_083109_raw.all.mb56.gz 20.40MB Simrad multibeam vendor format
0003_20020412_221747_raw.all.mb56.gz 4.90MB Simrad multibeam vendor format
0003_20020413_052249_raw.all.mb56.gz 22.29MB Simrad multibeam vendor format
0004_20010301_202756_raw.all.mb56.gz 16.03MB Simrad multibeam vendor format
0004_20010301_233333_raw.all.mb56.gz 51.55MB Simrad multibeam vendor format
0004_20010302_014826_raw.all.mb56.gz 10.70MB Simrad multibeam vendor format
0004_20010302_113346_raw.all.mb56.gz 55.51MB Simrad multibeam vendor format
0004_20010302_132950_raw.all.mb56.gz 92.5KB Simrad multibeam vendor format
0004_20010302_135027_raw.all.mb56.gz 40.2KB Simrad multibeam vendor format
0004_20010302_170243_raw.all.mb56.gz 7.59MB Simrad multibeam vendor format
0004_20010302_210305_raw.all.mb56.gz 28.53MB Simrad multibeam vendor format
0004_20010302_212726_raw.all.mb56.gz 20.06MB Simrad multibeam vendor format
0004_20010302_221554_raw.all.mb56.gz 3.93MB Simrad multibeam vendor format
0004_20010303_010607_raw.all.mb56.gz 40.89MB Simrad multibeam vendor format
0004_20010303_013440_raw.all.mb56.gz 5.44MB Simrad multibeam vendor format
0004_20010303_031102_raw.all.mb56.gz 5.07MB Simrad multibeam vendor format
0004_20010303_044542_raw.all.mb56.gz 6.31MB Simrad multibeam vendor format
0004_20010303_070456_raw.all.mb56.gz 52.84MB Simrad multibeam vendor format
0004_20010303_110513_raw.all.mb56.gz 30.87MB Simrad multibeam vendor format
0004_20010303_121955_raw.all.mb56.gz 9.01MB Simrad multibeam vendor format
0004_20010303_141014_raw.all.mb56.gz 24.07MB Simrad multibeam vendor format
0004_20010303_143807_raw.all.mb56.gz 3.95MB Simrad multibeam vendor format
0004_20010303_153945_raw.all.mb56.gz 11.34MB Simrad multibeam vendor format
0004_20010303_171809_raw.all.mb56.gz 1.07MB Simrad multibeam vendor format
0004_20010303_172004_raw.all.mb56.gz 52.79MB Simrad multibeam vendor format
0004_20010303_210459_raw.all.mb56.gz 10.17MB Simrad multibeam vendor format
0004_20010303_222003_raw.all.mb56.gz 2.76MB Simrad multibeam vendor format
0004_20010312_005135_raw.all.mb56.gz 43.53MB Simrad multibeam vendor format
0004_20010312_014114_raw.all.mb56.gz 4.02MB Simrad multibeam vendor format
0004_20010312_043657_raw.all.mb56.gz 3.71MB Simrad multibeam vendor format
0004_20010312_055203_raw.all.mb56.gz 5.53MB Simrad multibeam vendor format
0004_20010312_115750_raw.all.mb56.gz 2.78MB Simrad multibeam vendor format
0004_20010312_154022_raw.all.mb56.gz 2.63MB Simrad multibeam vendor format
0004_20010312_165354_raw.all.mb56.gz 5.57MB Simrad multibeam vendor format
0004_20010312_175042_raw.all.mb56.gz 2.83MB Simrad multibeam vendor format
0004_20010312_201918_raw.all.mb56.gz 15.10MB Simrad multibeam vendor format
0004_20010312_224007_raw.all.mb56.gz 17.62MB Simrad multibeam vendor format
0004_20010312_234516_raw.all.mb56.gz 10.62MB Simrad multibeam vendor format
0004_20010312_234537_raw.all.mb56.gz 2.47MB Simrad multibeam vendor format
0004_20010313_014719_raw.all.mb56.gz 3.66MB Simrad multibeam vendor format
0004_20010313_033757_raw.all.mb56.gz 4.08MB Simrad multibeam vendor format
0004_20010313_045134_raw.all.mb56.gz 5.28MB Simrad multibeam vendor format
0004_20010313_102207_raw.all.mb56.gz 22.17MB Simrad multibeam vendor format
0004_20010313_114746_raw.all.mb56.gz 2.34MB Simrad multibeam vendor format
0004_20010313_123940_raw.all.mb56.gz 3.04MB Simrad multibeam vendor format
0004_20010313_174128_raw.all.mb56.gz 2.19MB Simrad multibeam vendor format
0004_20020409_220612_raw.all.mb56.gz 258.82MB Simrad multibeam vendor format
0004_20020410_024423_raw.all.mb56.gz 8.54MB Simrad multibeam vendor format
0004_20020410_110330_raw.all.mb56.gz 10.52MB Simrad multibeam vendor format
0004_20020411_043205_raw.all.mb56.gz 2.77MB Simrad multibeam vendor format
0004_20020411_233256_raw.all.mb56.gz 17.41MB Simrad multibeam vendor format
0004_20020412_001938_raw.all.mb56.gz 5.42MB Simrad multibeam vendor format
0004_20020412_055005_raw.all.mb56.gz 17.34MB Simrad multibeam vendor format
0004_20020412_084242_raw.all.mb56.gz 4.39MB Simrad multibeam vendor format
0004_20020412_222035_raw.all.mb56.gz 19.04MB Simrad multibeam vendor format
0004_20020413_053645_raw.all.mb56.gz 4.67MB Simrad multibeam vendor format
0005_20010302_120346_raw.all.mb56.gz 1.41MB Simrad multibeam vendor format
0005_20010302_132954_raw.all.mb56.gz 1.25MB Simrad multibeam vendor format
0005_20010302_135034_raw.all.mb56.gz 20.14MB Simrad multibeam vendor format
0005_20010302_170657_raw.all.mb56.gz 53.14MB Simrad multibeam vendor format
0005_20010302_213847_raw.all.mb56.gz 4.52MB Simrad multibeam vendor format
0005_20010302_221803_raw.all.mb56.gz 7.71MB Simrad multibeam vendor format
0005_20010303_013742_raw.all.mb56.gz 56.10MB Simrad multibeam vendor format
0005_20010303_031401_raw.all.mb56.gz 52.40MB Simrad multibeam vendor format
0005_20010303_044909_raw.all.mb56.gz 54.63MB Simrad multibeam vendor format
0005_20010303_073559_raw.all.mb56.gz 5.02MB Simrad multibeam vendor format
0005_20010303_112257_raw.all.mb56.gz 4.25MB Simrad multibeam vendor format
0005_20010303_122511_raw.all.mb56.gz 5.61MB Simrad multibeam vendor format
0005_20010303_144031_raw.all.mb56.gz 48.61MB Simrad multibeam vendor format
0005_20010303_154624_raw.all.mb56.gz 49.56MB Simrad multibeam vendor format
0005_20010303_175005_raw.all.mb56.gz 5.31MB Simrad multibeam vendor format
0005_20010303_211058_raw.all.mb56.gz 4.45MB Simrad multibeam vendor format
0005_20010303_222143_raw.all.mb56.gz 31.61MB Simrad multibeam vendor format
0005_20010312_011805_raw.all.mb56.gz 4.52MB Simrad multibeam vendor format
0005_20010312_015021_raw.all.mb56.gz 43.15MB Simrad multibeam vendor format
0005_20010312_044119_raw.all.mb56.gz 38.59MB Simrad multibeam vendor format
0005_20010312_060417_raw.all.mb56.gz 40.70MB Simrad multibeam vendor format
0005_20010312_154122_raw.all.mb56.gz 2.62MB Simrad multibeam vendor format
0005_20010312_165709_raw.all.mb56.gz 4.58MB Simrad multibeam vendor format
0005_20010312_175242_raw.all.mb56.gz 7.57MB Simrad multibeam vendor format
0005_20010312_202918_raw.all.mb56.gz 6.85MB Simrad multibeam vendor format
0005_20010312_225008_raw.all.mb56.gz 12.74MB Simrad multibeam vendor format
0005_20010312_235156_raw.all.mb56.gz 4.76MB Simrad multibeam vendor format
0005_20010312_235643_raw.all.mb56.gz 5.47MB Simrad multibeam vendor format
0005_20010313_014940_raw.all.mb56.gz 18.07MB Simrad multibeam vendor format
0005_20010313_034040_raw.all.mb56.gz 21.78MB Simrad multibeam vendor format
0005_20010313_045458_raw.all.mb56.gz 24.01MB Simrad multibeam vendor format
0005_20010313_102418_raw.all.mb56.gz 3.39MB Simrad multibeam vendor format
0005_20010313_114915_raw.all.mb56.gz 32.04MB Simrad multibeam vendor format
0005_20010313_125537_raw.all.mb56.gz 5.03MB Simrad multibeam vendor format
0005_20020410_002004_raw.all.mb56.gz 23.56MB Simrad multibeam vendor format
0005_20020410_025001_raw.all.mb56.gz 3.58MB Simrad multibeam vendor format
0005_20020410_111134_raw.all.mb56.gz 3.12MB Simrad multibeam vendor format
0005_20020411_043341_raw.all.mb56.gz 16.06MB Simrad multibeam vendor format
0005_20020411_234223_raw.all.mb56.gz 6.21MB Simrad multibeam vendor format
0005_20020412_002256_raw.all.mb56.gz 18.01MB Simrad multibeam vendor format
0005_20020412_055948_raw.all.mb56.gz 4.57MB Simrad multibeam vendor format
0005_20020412_084512_raw.all.mb56.gz 17.50MB Simrad multibeam vendor format
0005_20020412_223134_raw.all.mb56.gz 4.95MB Simrad multibeam vendor format
0005_20020413_053945_raw.all.mb56.gz 23.87MB Simrad multibeam vendor format
0006_20010302_120431_raw.all.mb56.gz 6.45MB Simrad multibeam vendor format
0006_20010302_133033_raw.all.mb56.gz 89.4KB Simrad multibeam vendor format
0006_20010302_140124_raw.all.mb56.gz 1.54MB Simrad multibeam vendor format
0006_20010302_173536_raw.all.mb56.gz 5.40MB Simrad multibeam vendor format
0006_20010302_214126_raw.all.mb56.gz 48.93MB Simrad multibeam vendor format
0006_20010302_222219_raw.all.mb56.gz 3.50MB Simrad multibeam vendor format
0006_20010303_014110_raw.all.mb56.gz 5.47MB Simrad multibeam vendor format
0006_20010303_034220_raw.all.mb56.gz 4.87MB Simrad multibeam vendor format
0006_20010303_051828_raw.all.mb56.gz 4.54MB Simrad multibeam vendor format
0006_20010303_074100_raw.all.mb56.gz 50.04MB Simrad multibeam vendor format
0006_20010303_112525_raw.all.mb56.gz 52.56MB Simrad multibeam vendor format
0006_20010303_122824_raw.all.mb56.gz 52.30MB Simrad multibeam vendor format
0006_20010303_150842_raw.all.mb56.gz 4.93MB Simrad multibeam vendor format
0006_20010303_161443_raw.all.mb56.gz 4.26MB Simrad multibeam vendor format
0006_20010303_175305_raw.all.mb56.gz 5.14MB Simrad multibeam vendor format
0006_20010303_211342_raw.all.mb56.gz 45.33MB Simrad multibeam vendor format
0006_20010303_224051_raw.all.mb56.gz 3.42MB Simrad multibeam vendor format
0006_20010312_012019_raw.all.mb56.gz 32.42MB Simrad multibeam vendor format
0006_20010312_021543_raw.all.mb56.gz 4.43MB Simrad multibeam vendor format
0006_20010312_050553_raw.all.mb56.gz 4.66MB Simrad multibeam vendor format
0006_20010312_062908_raw.all.mb56.gz 6.63MB Simrad multibeam vendor format
0006_20010312_154322_raw.all.mb56.gz 2.19MB Simrad multibeam vendor format
0006_20010312_165909_raw.all.mb56.gz 4.07MB Simrad multibeam vendor format
0006_20010312_180358_raw.all.mb56.gz 3.08MB Simrad multibeam vendor format
0006_20010312_225808_raw.all.mb56.gz 42.47MB Simrad multibeam vendor format
0006_20010312_235458_raw.all.mb56.gz 11.47MB Simrad multibeam vendor format
0006_20010313_020110_raw.all.mb56.gz 3.36MB Simrad multibeam vendor format
0006_20010313_035404_raw.all.mb56.gz 4.08MB Simrad multibeam vendor format
0006_20010313_051007_raw.all.mb56.gz 3.47MB Simrad multibeam vendor format
0006_20010313_103945_raw.all.mb56.gz 32.87MB Simrad multibeam vendor format
0006_20010313_115748_raw.all.mb56.gz 0.77MB Simrad multibeam vendor format
0006_20010313_125846_raw.all.mb56.gz 2.73MB Simrad multibeam vendor format
0006_20020410_012234_raw.all.mb56.gz 6.25MB Simrad multibeam vendor format
0006_20020410_025232_raw.all.mb56.gz 8.22MB Simrad multibeam vendor format
0006_20020410_111350_raw.all.mb56.gz 11.41MB Simrad multibeam vendor format
0006_20020411_044319_raw.all.mb56.gz 5.25MB Simrad multibeam vendor format
0006_20020411_234530_raw.all.mb56.gz 15.48MB Simrad multibeam vendor format
0006_20020412_003250_raw.all.mb56.gz 5.82MB Simrad multibeam vendor format
0006_20020412_060219_raw.all.mb56.gz 16.02MB Simrad multibeam vendor format
0006_20020412_085535_raw.all.mb56.gz 4.21MB Simrad multibeam vendor format
0006_20020412_223432_raw.all.mb56.gz 21.40MB Simrad multibeam vendor format
0006_20020413_055359_raw.all.mb56.gz 4.94MB Simrad multibeam vendor format
0007_20010302_120753_raw.all.mb56.gz 55.41MB Simrad multibeam vendor format
0007_20010302_133115_raw.all.mb56.gz 346.3KB Simrad multibeam vendor format
0007_20010302_140421_raw.all.mb56.gz 54.09MB Simrad multibeam vendor format
0007_20010302_173829_raw.all.mb56.gz 53.78MB Simrad multibeam vendor format
0007_20010302_222418_raw.all.mb56.gz 53.98MB Simrad multibeam vendor format
0007_20010303_021025_raw.all.mb56.gz 52.48MB Simrad multibeam vendor format
0007_20010303_034503_raw.all.mb56.gz 54.70MB Simrad multibeam vendor format
0007_20010303_052106_raw.all.mb56.gz 50.60MB Simrad multibeam vendor format
0007_20010303_080900_raw.all.mb56.gz 8.51MB Simrad multibeam vendor format
0007_20010303_115526_raw.all.mb56.gz 0.73MB Simrad multibeam vendor format
0007_20010303_125804_raw.all.mb56.gz 4.72MB Simrad multibeam vendor format
0007_20010303_151133_raw.all.mb56.gz 3.81MB Simrad multibeam vendor format
0007_20010303_161712_raw.all.mb56.gz 53.12MB Simrad multibeam vendor format
0007_20010303_175607_raw.all.mb56.gz 48.23MB Simrad multibeam vendor format
0007_20010303_214035_raw.all.mb56.gz 5.07MB Simrad multibeam vendor format
0007_20010303_224300_raw.all.mb56.gz 48.13MB Simrad multibeam vendor format
0007_20010312_021747_raw.all.mb56.gz 47.32MB Simrad multibeam vendor format
0007_20010312_050846_raw.all.mb56.gz 41.42MB Simrad multibeam vendor format
0007_20010312_063314_raw.all.mb56.gz 37.89MB Simrad multibeam vendor format
0007_20010312_154422_raw.all.mb56.gz 2.21MB Simrad multibeam vendor format
0007_20010312_170209_raw.all.mb56.gz 2.83MB Simrad multibeam vendor format
0007_20010312_180542_raw.all.mb56.gz 1.13MB Simrad multibeam vendor format
0007_20010312_232308_raw.all.mb56.gz 4.07MB Simrad multibeam vendor format
0007_20010313_000210_raw.all.mb56.gz 4.44MB Simrad multibeam vendor format
0007_20010313_020314_raw.all.mb56.gz 18.02MB Simrad multibeam vendor format
0007_20010313_035642_raw.all.mb56.gz 23.53MB Simrad multibeam vendor format
0007_20010313_051224_raw.all.mb56.gz 26.27MB Simrad multibeam vendor format
0007_20010313_110035_raw.all.mb56.gz 3.92MB Simrad multibeam vendor format
0007_20010313_130033_raw.all.mb56.gz 4.69MB Simrad multibeam vendor format
0007_20020410_012600_raw.all.mb56.gz 1.69MB Simrad multibeam vendor format
0007_20020410_025814_raw.all.mb56.gz 5.47MB Simrad multibeam vendor format
0007_20020410_112220_raw.all.mb56.gz 3.04MB Simrad multibeam vendor format
0007_20020411_044631_raw.all.mb56.gz 16.82MB Simrad multibeam vendor format
0007_20020411_235428_raw.all.mb56.gz 5.29MB Simrad multibeam vendor format
0007_20020412_003608_raw.all.mb56.gz 15.15MB Simrad multibeam vendor format
0007_20020412_061147_raw.all.mb56.gz 4.21MB Simrad multibeam vendor format
0007_20020412_085812_raw.all.mb56.gz 19.93MB Simrad multibeam vendor format
0007_20020412_224635_raw.all.mb56.gz 4.46MB Simrad multibeam vendor format
0007_20020413_055659_raw.all.mb56.gz 21.37MB Simrad multibeam vendor format
0008_20010302_111631_raw.all.mb56.gz 19.32MB Simrad multibeam vendor format
0008_20010302_123721_raw.all.mb56.gz 2.25MB Simrad multibeam vendor format
0008_20010302_133125_raw.all.mb56.gz 32.70MB Simrad multibeam vendor format
0008_20010302_143316_raw.all.mb56.gz 1.42MB Simrad multibeam vendor format
0008_20010302_180731_raw.all.mb56.gz 4.58MB Simrad multibeam vendor format
0008_20010302_225419_raw.all.mb56.gz 0.53MB Simrad multibeam vendor format
0008_20010303_023838_raw.all.mb56.gz 5.56MB Simrad multibeam vendor format
0008_20010303_041412_raw.all.mb56.gz 5.26MB Simrad multibeam vendor format
0008_20010303_054917_raw.all.mb56.gz 5.13MB Simrad multibeam vendor format
0008_20010303_081400_raw.all.mb56.gz 52.25MB Simrad multibeam vendor format
0008_20010303_115553_raw.all.mb56.gz 2.49MB Simrad multibeam vendor format
0008_20010303_130053_raw.all.mb56.gz 48.33MB Simrad multibeam vendor format
0008_20010303_164713_raw.all.mb56.gz 0.53MB Simrad multibeam vendor format
0008_20010303_182346_raw.all.mb56.gz 5.14MB Simrad multibeam vendor format
0008_20010303_214341_raw.all.mb56.gz 47.80MB Simrad multibeam vendor format
0008_20010303_231114_raw.all.mb56.gz 4.42MB Simrad multibeam vendor format
0008_20010312_024512_raw.all.mb56.gz 4.07MB Simrad multibeam vendor format
0008_20010312_053402_raw.all.mb56.gz 4.16MB Simrad multibeam vendor format
0008_20010312_065702_raw.all.mb56.gz 4.56MB Simrad multibeam vendor format
0008_20010312_170409_raw.all.mb56.gz 5.50MB Simrad multibeam vendor format
0008_20010312_180640_raw.all.mb56.gz 4.34MB Simrad multibeam vendor format
0008_20010312_232608_raw.all.mb56.gz 17.49MB Simrad multibeam vendor format
0008_20010313_000429_raw.all.mb56.gz 12.10MB Simrad multibeam vendor format
0008_20010313_021419_raw.all.mb56.gz 3.97MB Simrad multibeam vendor format
0008_20010313_041259_raw.all.mb56.gz 3.93MB Simrad multibeam vendor format
0008_20010313_053028_raw.all.mb56.gz 3.21MB Simrad multibeam vendor format
0008_20010313_110305_raw.all.mb56.gz 31.51MB Simrad multibeam vendor format
0008_20010313_130329_raw.all.mb56.gz 2.56MB Simrad multibeam vendor format
0008_20020410_015529_raw.all.mb56.gz 12.10MB Simrad multibeam vendor format
0008_20020410_030141_raw.all.mb56.gz 8.92MB Simrad multibeam vendor format
0008_20020410_112422_raw.all.mb56.gz 10.59MB Simrad multibeam vendor format
0008_20020411_045628_raw.all.mb56.gz 6.34MB Simrad multibeam vendor format
0008_20020411_235742_raw.all.mb56.gz 4.86MB Simrad multibeam vendor format
0008_20020412_004501_raw.all.mb56.gz 5.22MB Simrad multibeam vendor format
0008_20020412_061420_raw.all.mb56.gz 17.49MB Simrad multibeam vendor format
0008_20020412_090932_raw.all.mb56.gz 4.53MB Simrad multibeam vendor format
0008_20020412_224911_raw.all.mb56.gz 18.89MB Simrad multibeam vendor format
0008_20020413_061021_raw.all.mb56.gz 3.88MB Simrad multibeam vendor format
0009_20010302_124938_raw.all.mb56.gz 3.02MB Simrad multibeam vendor format
0009_20020410_030726_raw.all.mb56.gz 4.50MB Simrad multibeam vendor format
0009_20020410_113240_raw.all.mb56.gz 4.28MB Simrad multibeam vendor format
0009_20020411_050009_raw.all.mb56.gz 15.91MB Simrad multibeam vendor format
0009_20020412_004809_raw.all.mb56.gz 17.79MB Simrad multibeam vendor format
0009_20020412_062415_raw.all.mb56.gz 4.71MB Simrad multibeam vendor format
0009_20020412_091203_raw.all.mb56.gz 18.26MB Simrad multibeam vendor format
0009_20020412_230013_raw.all.mb56.gz 4.45MB Simrad multibeam vendor format
0009_20020413_061243_raw.all.mb56.gz 23.97MB Simrad multibeam vendor format
0010_20020410_031027_raw.all.mb56.gz 7.39MB Simrad multibeam vendor format
0010_20020410_113547_raw.all.mb56.gz 11.77MB Simrad multibeam vendor format
0010_20020411_050946_raw.all.mb56.gz 5.62MB Simrad multibeam vendor format
0010_20020412_005759_raw.all.mb56.gz 6.08MB Simrad multibeam vendor format
0010_20020412_062652_raw.all.mb56.gz 16.19MB Simrad multibeam vendor format
0010_20020412_092252_raw.all.mb56.gz 4.16MB Simrad multibeam vendor format
0010_20020412_230301_raw.all.mb56.gz 21.37MB Simrad multibeam vendor format
0010_20020413_062705_raw.all.mb56.gz 4.48MB Simrad multibeam vendor format
0011_20010312_031623_raw.all.mb56.gz 45.94MB Simrad multibeam vendor format
0011_20010312_072634_raw.all.mb56.gz 38.00MB Simrad multibeam vendor format
0011_20010312_171509_raw.all.mb56.gz 1.17MB Simrad multibeam vendor format
0011_20010312_181642_raw.all.mb56.gz 2.23MB Simrad multibeam vendor format
0011_20010313_002248_raw.all.mb56.gz 4.87MB Simrad multibeam vendor format
0011_20010313_023140_raw.all.mb56.gz 19.17MB Simrad multibeam vendor format
0011_20010313_055046_raw.all.mb56.gz 27.73MB Simrad multibeam vendor format
0011_20020410_031555_raw.all.mb56.gz 6.23MB Simrad multibeam vendor format
0011_20020410_114442_raw.all.mb56.gz 3.48MB Simrad multibeam vendor format
0011_20020411_051307_raw.all.mb56.gz 16.48MB Simrad multibeam vendor format
0011_20020412_010124_raw.all.mb56.gz 14.86MB Simrad multibeam vendor format
0011_20020412_063631_raw.all.mb56.gz 3.89MB Simrad multibeam vendor format
0011_20020412_092524_raw.all.mb56.gz 19.74MB Simrad multibeam vendor format
0011_20020412_231506_raw.all.mb56.gz 5.41MB Simrad multibeam vendor format
0011_20020413_062949_raw.all.mb56.gz 22.61MB Simrad multibeam vendor format
0012_20010302_132029_raw.all.mb56.gz 6.03MB Simrad multibeam vendor format
0012_20010302_151138_raw.all.mb56.gz 5.90MB Simrad multibeam vendor format
0012_20010302_191219_raw.all.mb56.gz 4.76MB Simrad multibeam vendor format
0012_20010302_232952_raw.all.mb56.gz 52.31MB Simrad multibeam vendor format
0012_20010303_065123_raw.all.mb56.gz 2.59MB Simrad multibeam vendor format
0012_20010303_091630_raw.all.mb56.gz 4.32MB Simrad multibeam vendor format
0012_20010303_192621_raw.all.mb56.gz 4.49MB Simrad multibeam vendor format
0012_20010312_034302_raw.all.mb56.gz 4.37MB Simrad multibeam vendor format
0012_20010312_075034_raw.all.mb56.gz 4.37MB Simrad multibeam vendor format
0012_20010312_171600_raw.all.mb56.gz 5.85MB Simrad multibeam vendor format
0012_20010312_181742_raw.all.mb56.gz 1.13MB Simrad multibeam vendor format
0012_20010313_002552_raw.all.mb56.gz 13.03MB Simrad multibeam vendor format
0012_20010313_024327_raw.all.mb56.gz 3.86MB Simrad multibeam vendor format
0012_20010313_060937_raw.all.mb56.gz 3.26MB Simrad multibeam vendor format
0012_20020410_031956_raw.all.mb56.gz 0.98MB Simrad multibeam vendor format
0012_20020410_114716_raw.all.mb56.gz 7.38MB Simrad multibeam vendor format
0012_20020411_052258_raw.all.mb56.gz 5.89MB Simrad multibeam vendor format
0012_20020412_011008_raw.all.mb56.gz 4.93MB Simrad multibeam vendor format
0012_20020412_063901_raw.all.mb56.gz 17.63MB Simrad multibeam vendor format
0012_20020412_093635_raw.all.mb56.gz 5.84MB Simrad multibeam vendor format
0012_20020412_231816_raw.all.mb56.gz 19.36MB Simrad multibeam vendor format
0012_20020413_064403_raw.all.mb56.gz 4.00MB Simrad multibeam vendor format
0013_20010302_151455_raw.all.mb56.gz 53.49MB Simrad multibeam vendor format
0013_20010302_191505_raw.all.mb56.gz 54.71MB Simrad multibeam vendor format
0013_20010302_235842_raw.all.mb56.gz 5.90MB Simrad multibeam vendor format
0013_20010303_091831_raw.all.mb56.gz 51.80MB Simrad multibeam vendor format
0013_20010303_192908_raw.all.mb56.gz 51.71MB Simrad multibeam vendor format
0013_20010312_034541_raw.all.mb56.gz 39.91MB Simrad multibeam vendor format
0013_20010312_075334_raw.all.mb56.gz 45.20MB Simrad multibeam vendor format
0013_20010312_171909_raw.all.mb56.gz 3.54MB Simrad multibeam vendor format
0013_20010312_181842_raw.all.mb56.gz 1.87MB Simrad multibeam vendor format
0013_20010313_003356_raw.all.mb56.gz 4.16MB Simrad multibeam vendor format
0013_20010313_024553_raw.all.mb56.gz 22.17MB Simrad multibeam vendor format
0013_20010313_061148_raw.all.mb56.gz 26.83MB Simrad multibeam vendor format
0013_20020410_032034_raw.all.mb56.gz 13.05MB Simrad multibeam vendor format
0013_20020410_115249_raw.all.mb56.gz 7.25MB Simrad multibeam vendor format
0013_20020411_052622_raw.all.mb56.gz 15.67MB Simrad multibeam vendor format
0013_20020412_011309_raw.all.mb56.gz 18.05MB Simrad multibeam vendor format
0013_20020412_064900_raw.all.mb56.gz 8.87MB Simrad multibeam vendor format
0013_20020412_094008_raw.all.mb56.gz 19.34MB Simrad multibeam vendor format
0013_20020412_232931_raw.all.mb56.gz 4.08MB Simrad multibeam vendor format
0013_20020413_064637_raw.all.mb56.gz 24.97MB Simrad multibeam vendor format
0014_20010302_154335_raw.all.mb56.gz 6.39MB Simrad multibeam vendor format
0014_20010302_194506_raw.all.mb56.gz 3.39MB Simrad multibeam vendor format
0014_20010303_000212_raw.all.mb56.gz 50.85MB Simrad multibeam vendor format
0014_20010303_094731_raw.all.mb56.gz 4.84MB Simrad multibeam vendor format
0014_20010303_195909_raw.all.mb56.gz 3.05MB Simrad multibeam vendor format
0014_20010312_041028_raw.all.mb56.gz 4.82MB Simrad multibeam vendor format
0014_20010312_082035_raw.all.mb56.gz 0.55MB Simrad multibeam vendor format
0014_20010312_172109_raw.all.mb56.gz 8.31MB Simrad multibeam vendor format
0014_20010312_181942_raw.all.mb56.gz 2.40MB Simrad multibeam vendor format
0014_20010313_003636_raw.all.mb56.gz 13.88MB Simrad multibeam vendor format
0014_20010313_030026_raw.all.mb56.gz 3.88MB Simrad multibeam vendor format
0014_20010313_062848_raw.all.mb56.gz 3.28MB Simrad multibeam vendor format
0014_20020410_032921_raw.all.mb56.gz 8.68MB Simrad multibeam vendor format
0014_20020410_115727_raw.all.mb56.gz 53.08MB Simrad multibeam vendor format
0014_20020411_053551_raw.all.mb56.gz 5.99MB Simrad multibeam vendor format
0014_20020412_012259_raw.all.mb56.gz 5.68MB Simrad multibeam vendor format
0014_20020412_065353_raw.all.mb56.gz 15.81MB Simrad multibeam vendor format
0014_20020412_095133_raw.all.mb56.gz 5.42MB Simrad multibeam vendor format
0014_20020412_233205_raw.all.mb56.gz 22.07MB Simrad multibeam vendor format
0014_20020413_070128_raw.all.mb56.gz 6.16MB Simrad multibeam vendor format
0015_20010302_154701_raw.all.mb56.gz 31.90MB Simrad multibeam vendor format
0015_20010302_194655_raw.all.mb56.gz 53.77MB Simrad multibeam vendor format
0015_20010303_002957_raw.all.mb56.gz 4.81MB Simrad multibeam vendor format
0015_20010303_094931_raw.all.mb56.gz 49.41MB Simrad multibeam vendor format
0015_20010303_200353_raw.all.mb56.gz 9.35MB Simrad multibeam vendor format
0015_20010312_041237_raw.all.mb56.gz 34.91MB Simrad multibeam vendor format
0015_20010312_082123_raw.all.mb56.gz 36.97MB Simrad multibeam vendor format
0015_20010312_172609_raw.all.mb56.gz 5.70MB Simrad multibeam vendor format
0015_20010312_182142_raw.all.mb56.gz 3.88MB Simrad multibeam vendor format
0015_20010313_004523_raw.all.mb56.gz 3.63MB Simrad multibeam vendor format
0015_20010313_030252_raw.all.mb56.gz 20.01MB Simrad multibeam vendor format
0015_20010313_063058_raw.all.mb56.gz 28.16MB Simrad multibeam vendor format
0015_20020410_033524_raw.all.mb56.gz 7.07MB Simrad multibeam vendor format
0015_20020410_123026_raw.all.mb56.gz 53.10MB Simrad multibeam vendor format
0015_20020411_053931_raw.all.mb56.gz 17.16MB Simrad multibeam vendor format
0015_20020412_012613_raw.all.mb56.gz 15.07MB Simrad multibeam vendor format
0015_20020412_070324_raw.all.mb56.gz 4.00MB Simrad multibeam vendor format
0015_20020412_095445_raw.all.mb56.gz 20.40MB Simrad multibeam vendor format
0015_20020412_234425_raw.all.mb56.gz 4.14MB Simrad multibeam vendor format
0015_20020413_070509_raw.all.mb56.gz 22.48MB Simrad multibeam vendor format
0016_20010302_201617_raw.all.mb56.gz 4.58MB Simrad multibeam vendor format
0016_20010303_003257_raw.all.mb56.gz 53.54MB Simrad multibeam vendor format
0016_20010303_101931_raw.all.mb56.gz 6.94MB Simrad multibeam vendor format
0016_20010303_200917_raw.all.mb56.gz 5.54MB Simrad multibeam vendor format
0016_20010312_084335_raw.all.mb56.gz 3.91MB Simrad multibeam vendor format
0016_20010312_173009_raw.all.mb56.gz 2.09MB Simrad multibeam vendor format
0016_20010312_182342_raw.all.mb56.gz 8.96MB Simrad multibeam vendor format
0016_20010313_004731_raw.all.mb56.gz 14.38MB Simrad multibeam vendor format
0016_20010313_065025_raw.all.mb56.gz 3.67MB Simrad multibeam vendor format
0016_20020410_033939_raw.all.mb56.gz 5.28MB Simrad multibeam vendor format
0016_20020410_130100_raw.all.mb56.gz 68.48MB Simrad multibeam vendor format
0016_20020411_054938_raw.all.mb56.gz 6.45MB Simrad multibeam vendor format
0016_20020412_013513_raw.all.mb56.gz 4.96MB Simrad multibeam vendor format
0016_20020412_070555_raw.all.mb56.gz 17.97MB Simrad multibeam vendor format
0016_20020412_100614_raw.all.mb56.gz 4.48MB Simrad multibeam vendor format
0016_20020412_234654_raw.all.mb56.gz 19.66MB Simrad multibeam vendor format
0016_20020413_071922_raw.all.mb56.gz 4.51MB Simrad multibeam vendor format
0017_20010302_201859_raw.all.mb56.gz 51.40MB Simrad multibeam vendor format
0017_20010303_010129_raw.all.mb56.gz 2.39MB Simrad multibeam vendor format
0017_20010303_102332_raw.all.mb56.gz 49.76MB Simrad multibeam vendor format
0017_20010303_201232_raw.all.mb56.gz 45.58MB Simrad multibeam vendor format
0017_20010312_084635_raw.all.mb56.gz 384.3KB Simrad multibeam vendor format
0017_20010312_173109_raw.all.mb56.gz 4.72MB Simrad multibeam vendor format
0017_20010313_005633_raw.all.mb56.gz 4.22MB Simrad multibeam vendor format
0017_20010313_065245_raw.all.mb56.gz 27.49MB Simrad multibeam vendor format
0017_20020410_034243_raw.all.mb56.gz 46.11MB Simrad multibeam vendor format
0017_20020410_133424_raw.all.mb56.gz 7.29MB Simrad multibeam vendor format
0017_20020411_055320_raw.all.mb56.gz 15.66MB Simrad multibeam vendor format
0017_20020412_013819_raw.all.mb56.gz 17.25MB Simrad multibeam vendor format
0017_20020412_071608_raw.all.mb56.gz 4.48MB Simrad multibeam vendor format
0017_20020412_100845_raw.all.mb56.gz 18.47MB Simrad multibeam vendor format
0017_20020412_235819_raw.all.mb56.gz 4.24MB Simrad multibeam vendor format
0017_20020413_072215_raw.all.mb56.gz 26.10MB Simrad multibeam vendor format
0018_20010302_204729_raw.all.mb56.gz 4.23MB Simrad multibeam vendor format
0018_20010303_105138_raw.all.mb56.gz 4.52MB Simrad multibeam vendor format
0018_20010303_203925_raw.all.mb56.gz 4.75MB Simrad multibeam vendor format
0018_20010312_084652_raw.all.mb56.gz 7.28MB Simrad multibeam vendor format
0018_20010312_174310_raw.all.mb56.gz 4.88MB Simrad multibeam vendor format
0018_20010313_005914_raw.all.mb56.gz 14.72MB Simrad multibeam vendor format
0018_20010313_070923_raw.all.mb56.gz 3.04MB Simrad multibeam vendor format
0018_20020410_041157_raw.all.mb56.gz 3.01MB Simrad multibeam vendor format
0018_20020410_133745_raw.all.mb56.gz 2.94MB Simrad multibeam vendor format
0018_20020411_060252_raw.all.mb56.gz 5.52MB Simrad multibeam vendor format
0018_20020412_014753_raw.all.mb56.gz 5.07MB Simrad multibeam vendor format
0018_20020412_071844_raw.all.mb56.gz 16.56MB Simrad multibeam vendor format
0018_20020412_101940_raw.all.mb56.gz 14.57MB Simrad multibeam vendor format
0018_20020413_000108_raw.all.mb56.gz 21.95MB Simrad multibeam vendor format
0018_20020413_073743_raw.all.mb56.gz 8.55MB Simrad multibeam vendor format
0019_20010302_204953_raw.all.mb56.gz 7.09MB Simrad multibeam vendor format
0019_20010303_105338_raw.all.mb56.gz 16.00MB Simrad multibeam vendor format
0019_20010303_204225_raw.all.mb56.gz 36.78MB Simrad multibeam vendor format
0019_20010312_085035_raw.all.mb56.gz 44.43MB Simrad multibeam vendor format
0019_20010312_174610_raw.all.mb56.gz 509.8KB Simrad multibeam vendor format
0019_20010313_010851_raw.all.mb56.gz 3.95MB Simrad multibeam vendor format
0019_20010313_071222_raw.all.mb56.gz 28.86MB Simrad multibeam vendor format
0019_20020410_041405_raw.all.mb56.gz 8.25MB Simrad multibeam vendor format
0019_20020410_133902_raw.all.mb56.gz 6.45MB Simrad multibeam vendor format
0019_20020411_060612_raw.all.mb56.gz 16.71MB Simrad multibeam vendor format
0019_20020412_015044_raw.all.mb56.gz 15.10MB Simrad multibeam vendor format
0019_20020412_072844_raw.all.mb56.gz 4.11MB Simrad multibeam vendor format
0019_20020412_103436_raw.all.mb56.gz 58.78MB Simrad multibeam vendor format
0019_20020413_001321_raw.all.mb56.gz 4.34MB Simrad multibeam vendor format
0019_20020413_074258_raw.all.mb56.gz 21.36MB Simrad multibeam vendor format
0020_20010312_091736_raw.all.mb56.gz 5.87MB Simrad multibeam vendor format
0020_20010313_011059_raw.all.mb56.gz 15.15MB Simrad multibeam vendor format
0020_20010313_073209_raw.all.mb56.gz 3.14MB Simrad multibeam vendor format
0020_20020410_041959_raw.all.mb56.gz 5.55MB Simrad multibeam vendor format
0020_20020410_134209_raw.all.mb56.gz 9.84MB Simrad multibeam vendor format
0020_20020411_061608_raw.all.mb56.gz 6.60MB Simrad multibeam vendor format
0020_20020412_015945_raw.all.mb56.gz 4.97MB Simrad multibeam vendor format
0020_20020412_073116_raw.all.mb56.gz 18.27MB Simrad multibeam vendor format
0020_20020412_141839_raw.all.mb56.gz 3.29MB Simrad multibeam vendor format
0020_20020413_001555_raw.all.mb56.gz 19.83MB Simrad multibeam vendor format
0020_20020413_075702_raw.all.mb56.gz 29.85MB Simrad multibeam vendor format
0021_20010312_092136_raw.all.mb56.gz 42.44MB Simrad multibeam vendor format
0021_20010313_012044_raw.all.mb56.gz 4.25MB Simrad multibeam vendor format
0021_20010313_073409_raw.all.mb56.gz 30.13MB Simrad multibeam vendor format
0021_20020410_042348_raw.all.mb56.gz 6.55MB Simrad multibeam vendor format
0021_20020410_134635_raw.all.mb56.gz 3.81MB Simrad multibeam vendor format
0021_20020411_061955_raw.all.mb56.gz 15.65MB Simrad multibeam vendor format
0021_20020412_020245_raw.all.mb56.gz 16.75MB Simrad multibeam vendor format
0021_20020412_074145_raw.all.mb56.gz 12.52MB Simrad multibeam vendor format
0021_20020412_142134_raw.all.mb56.gz 58.36MB Simrad multibeam vendor format
0021_20020413_002742_raw.all.mb56.gz 4.55MB Simrad multibeam vendor format
0022_20010312_094737_raw.all.mb56.gz 5.26MB Simrad multibeam vendor format
0022_20010313_012323_raw.all.mb56.gz 16.26MB Simrad multibeam vendor format
0022_20010313_075309_raw.all.mb56.gz 2.53MB Simrad multibeam vendor format
0022_20020410_043245_raw.all.mb56.gz 9.99MB Simrad multibeam vendor format
0022_20020410_134824_raw.all.mb56.gz 9.59MB Simrad multibeam vendor format
0022_20020411_062923_raw.all.mb56.gz 5.64MB Simrad multibeam vendor format
0022_20020412_021215_raw.all.mb56.gz 5.36MB Simrad multibeam vendor format
0022_20020412_145656_raw.all.mb56.gz 5.88MB Simrad multibeam vendor format
0022_20020413_003028_raw.all.mb56.gz 22.50MB Simrad multibeam vendor format
0023_20010312_095037_raw.all.mb56.gz 43.42MB Simrad multibeam vendor format
0023_20010313_013348_raw.all.mb56.gz 2.18MB Simrad multibeam vendor format
0023_20010313_075509_raw.all.mb56.gz 29.97MB Simrad multibeam vendor format
0023_20020410_050733_raw.all.mb56.gz 16.59MB Simrad multibeam vendor format
0023_20020410_135300_raw.all.mb56.gz 70.06MB Simrad multibeam vendor format
0023_20020411_063249_raw.all.mb56.gz 17.05MB Simrad multibeam vendor format
0023_20020412_021520_raw.all.mb56.gz 14.99MB Simrad multibeam vendor format
0023_20020412_150634_raw.all.mb56.gz 9.67MB Simrad multibeam vendor format
0023_20020413_004258_raw.all.mb56.gz 4.26MB Simrad multibeam vendor format
0024_20010312_101735_raw.all.mb56.gz 3.61MB Simrad multibeam vendor format
0024_20010313_081610_raw.all.mb56.gz 4.10MB Simrad multibeam vendor format
0024_20020410_051838_raw.all.mb56.gz 1.33MB Simrad multibeam vendor format
0024_20020410_142613_raw.all.mb56.gz 39.12MB Simrad multibeam vendor format
0024_20020411_064246_raw.all.mb56.gz 7.36MB Simrad multibeam vendor format
0024_20020412_022423_raw.all.mb56.gz 4.76MB Simrad multibeam vendor format
0024_20020412_151248_raw.all.mb56.gz 2.18MB Simrad multibeam vendor format
0024_20020413_004526_raw.all.mb56.gz 20.64MB Simrad multibeam vendor format
0025_20010312_101935_raw.all.mb56.gz 35.78MB Simrad multibeam vendor format
0025_20010313_081910_raw.all.mb56.gz 31.92MB Simrad multibeam vendor format
0025_20020410_051933_raw.all.mb56.gz 29.76MB Simrad multibeam vendor format
0025_20020410_144448_raw.all.mb56.gz 77.04MB Simrad multibeam vendor format
0025_20020411_064702_raw.all.mb56.gz 15.69MB Simrad multibeam vendor format
0025_20020412_022719_raw.all.mb56.gz 16.76MB Simrad multibeam vendor format
0025_20020412_151539_raw.all.mb56.gz 2.57MB Simrad multibeam vendor format
0025_20020413_005739_raw.all.mb56.gz 4.40MB Simrad multibeam vendor format
0026_20010312_104136_raw.all.mb56.gz 4.85MB Simrad multibeam vendor format
0026_20010313_083910_raw.all.mb56.gz 4.38MB Simrad multibeam vendor format
0026_20020410_054029_raw.all.mb56.gz 32.87MB Simrad multibeam vendor format
0026_20020410_151941_raw.all.mb56.gz 13.72MB Simrad multibeam vendor format
0026_20020411_065627_raw.all.mb56.gz 5.52MB Simrad multibeam vendor format
0026_20020412_023645_raw.all.mb56.gz 5.53MB Simrad multibeam vendor format
0026_20020412_171015_raw.all.mb56.gz 9.14MB Simrad multibeam vendor format
0026_20020413_010016_raw.all.mb56.gz 22.18MB Simrad multibeam vendor format
0027_20010312_104436_raw.all.mb56.gz 38.36MB Simrad multibeam vendor format
0027_20010313_084210_raw.all.mb56.gz 29.62MB Simrad multibeam vendor format
0027_20020410_060229_raw.all.mb56.gz 32.71MB Simrad multibeam vendor format
0027_20020410_152551_raw.all.mb56.gz 3.22MB Simrad multibeam vendor format
0027_20020411_065947_raw.all.mb56.gz 16.96MB Simrad multibeam vendor format
0027_20020412_023959_raw.all.mb56.gz 14.64MB Simrad multibeam vendor format
0027_20020412_173632_raw.all.mb56.gz 2.42MB Simrad multibeam vendor format
0027_20020413_011315_raw.all.mb56.gz 4.73MB Simrad multibeam vendor format
0028_20010312_110736_raw.all.mb56.gz 4.33MB Simrad multibeam vendor format
0028_20010313_090212_raw.all.mb56.gz 3.43MB Simrad multibeam vendor format
0028_20020410_062227_raw.all.mb56.gz 2.39MB Simrad multibeam vendor format
0028_20020410_152825_raw.all.mb56.gz 15.84MB Simrad multibeam vendor format
0028_20020411_070938_raw.all.mb56.gz 6.88MB Simrad multibeam vendor format
0028_20020412_024857_raw.all.mb56.gz 4.90MB Simrad multibeam vendor format
0028_20020413_011601_raw.all.mb56.gz 20.39MB Simrad multibeam vendor format
0029_20010312_111049_raw.all.mb56.gz 38.46MB Simrad multibeam vendor format
0029_20010313_090412_raw.all.mb56.gz 32.46MB Simrad multibeam vendor format
0029_20020410_062348_raw.all.mb56.gz 8.57MB Simrad multibeam vendor format
0029_20020410_153528_raw.all.mb56.gz 5.94MB Simrad multibeam vendor format
0029_20020411_071334_raw.all.mb56.gz 15.57MB Simrad multibeam vendor format
0029_20020412_025156_raw.all.mb56.gz 16.87MB Simrad multibeam vendor format
0029_20020413_012830_raw.all.mb56.gz 4.43MB Simrad multibeam vendor format
0030_20010313_092412_raw.all.mb56.gz 4.05MB Simrad multibeam vendor format
0030_20020410_062812_raw.all.mb56.gz 10.15MB Simrad multibeam vendor format
0030_20020410_153828_raw.all.mb56.gz 12.95MB Simrad multibeam vendor format
0030_20020411_072254_raw.all.mb56.gz 5.88MB Simrad multibeam vendor format
0030_20020412_030122_raw.all.mb56.gz 4.55MB Simrad multibeam vendor format
0030_20020413_013118_raw.all.mb56.gz 24.06MB Simrad multibeam vendor format
0031_20010312_113519_raw.all.mb56.gz 7.37MB Simrad multibeam vendor format
0031_20010313_092712_raw.all.mb56.gz 30.31MB Simrad multibeam vendor format
0031_20020410_063353_raw.all.mb56.gz 8.79MB Simrad multibeam vendor format
0031_20020410_154417_raw.all.mb56.gz 8.49MB Simrad multibeam vendor format
0031_20020411_072624_raw.all.mb56.gz 16.70MB Simrad multibeam vendor format
0031_20020412_030402_raw.all.mb56.gz 14.83MB Simrad multibeam vendor format
0031_20020413_014421_raw.all.mb56.gz 4.95MB Simrad multibeam vendor format
0032_20010313_094713_raw.all.mb56.gz 3.75MB Simrad multibeam vendor format
0032_20020410_063835_raw.all.mb56.gz 24.97MB Simrad multibeam vendor format
0032_20020410_154801_raw.all.mb56.gz 17.28MB Simrad multibeam vendor format
0032_20020411_073613_raw.all.mb56.gz 5.51MB Simrad multibeam vendor format
0032_20020412_031308_raw.all.mb56.gz 4.29MB Simrad multibeam vendor format
0032_20020413_014655_raw.all.mb56.gz 23.22MB Simrad multibeam vendor format
0033_20010313_095013_raw.all.mb56.gz 32.80MB Simrad multibeam vendor format
0033_20020410_065117_raw.all.mb56.gz 4.61MB Simrad multibeam vendor format
0033_20020410_155539_raw.all.mb56.gz 7.22MB Simrad multibeam vendor format
0033_20020411_073926_raw.all.mb56.gz 15.74MB Simrad multibeam vendor format
0033_20020412_031545_raw.all.mb56.gz 16.81MB Simrad multibeam vendor format
0033_20020413_015929_raw.all.mb56.gz 5.08MB Simrad multibeam vendor format
0034_20010313_095301_raw.all.mb56.gz 4.12MB Simrad multibeam vendor format
0034_20020410_065345_raw.all.mb56.gz 2.69MB Simrad multibeam vendor format
0034_20020410_155851_raw.all.mb56.gz 13.70MB Simrad multibeam vendor format
0034_20020411_074851_raw.all.mb56.gz 5.50MB Simrad multibeam vendor format
0034_20020412_032510_raw.all.mb56.gz 5.05MB Simrad multibeam vendor format
0034_20020413_020218_raw.all.mb56.gz 25.92MB Simrad multibeam vendor format
0035_20010313_101416_raw.all.mb56.gz 8.74MB Simrad multibeam vendor format
0035_20020410_065509_raw.all.mb56.gz 9.76MB Simrad multibeam vendor format
0035_20020410_160500_raw.all.mb56.gz 6.81MB Simrad multibeam vendor format
0035_20020411_075214_raw.all.mb56.gz 16.66MB Simrad multibeam vendor format
0035_20020412_032801_raw.all.mb56.gz 15.57MB Simrad multibeam vendor format
0035_20020413_021533_raw.all.mb56.gz 4.95MB Simrad multibeam vendor format
0036_20020410_070020_raw.all.mb56.gz 6.13MB Simrad multibeam vendor format
0036_20020410_160800_raw.all.mb56.gz 12.60MB Simrad multibeam vendor format
0036_20020411_080206_raw.all.mb56.gz 9.16MB Simrad multibeam vendor format
0036_20020412_033708_raw.all.mb56.gz 4.38MB Simrad multibeam vendor format
0036_20020413_021808_raw.all.mb56.gz 23.47MB Simrad multibeam vendor format
0037_20020410_070329_raw.all.mb56.gz 3.36MB Simrad multibeam vendor format
0037_20020410_161327_raw.all.mb56.gz 10.95MB Simrad multibeam vendor format
0037_20020411_080720_raw.all.mb56.gz 15.24MB Simrad multibeam vendor format
0037_20020412_033954_raw.all.mb56.gz 16.63MB Simrad multibeam vendor format
0037_20020413_023051_raw.all.mb56.gz 4.78MB Simrad multibeam vendor format
0038_20020410_070509_raw.all.mb56.gz 9.60MB Simrad multibeam vendor format
0038_20020410_161813_raw.all.mb56.gz 18.01MB Simrad multibeam vendor format
0038_20020411_081623_raw.all.mb56.gz 5.03MB Simrad multibeam vendor format
0038_20020412_034917_raw.all.mb56.gz 5.98MB Simrad multibeam vendor format
0038_20020413_023328_raw.all.mb56.gz 26.44MB Simrad multibeam vendor format
0039_20020410_070957_raw.all.mb56.gz 5.39MB Simrad multibeam vendor format
0039_20020410_162606_raw.all.mb56.gz 129.11MB Simrad multibeam vendor format
0039_20020411_081926_raw.all.mb56.gz 20.21MB Simrad multibeam vendor format
0039_20020412_035241_raw.all.mb56.gz 15.58MB Simrad multibeam vendor format
0039_20020413_024654_raw.all.mb56.gz 5.46MB Simrad multibeam vendor format
0040_20020410_071239_raw.all.mb56.gz 23.65MB Simrad multibeam vendor format
0040_20020410_172439_raw.all.mb56.gz 68.86MB Simrad multibeam vendor format
0040_20020411_083113_raw.all.mb56.gz 1.80MB Simrad multibeam vendor format
0040_20020412_040153_raw.all.mb56.gz 4.58MB Simrad multibeam vendor format
0040_20020413_024945_raw.all.mb56.gz 23.85MB Simrad multibeam vendor format
0041_20020410_072442_raw.all.mb56.gz 10.91MB Simrad multibeam vendor format
0041_20020410_175834_raw.all.mb56.gz 20.89MB Simrad multibeam vendor format
0041_20020411_083217_raw.all.mb56.gz 15.60MB Simrad multibeam vendor format
0041_20020412_040443_raw.all.mb56.gz 16.92MB Simrad multibeam vendor format
0041_20020413_030242_raw.all.mb56.gz 6.65MB Simrad multibeam vendor format
0042_20020410_073021_raw.all.mb56.gz 63.17MB Simrad multibeam vendor format
0042_20020410_180843_raw.all.mb56.gz 23.21MB Simrad multibeam vendor format
0042_20020411_084137_raw.all.mb56.gz 4.68MB Simrad multibeam vendor format
0042_20020412_041409_raw.all.mb56.gz 5.24MB Simrad multibeam vendor format
0042_20020413_030619_raw.all.mb56.gz 35.46MB Simrad multibeam vendor format
0043_20020410_080220_raw.all.mb56.gz 84.18MB Simrad multibeam vendor format
0043_20020410_181956_raw.all.mb56.gz 6.88MB Simrad multibeam vendor format
0043_20020411_084425_raw.all.mb56.gz 16.91MB Simrad multibeam vendor format
0043_20020412_041709_raw.all.mb56.gz 15.67MB Simrad multibeam vendor format
0043_20020413_032436_raw.all.mb56.gz 44.40MB Simrad multibeam vendor format
0044_20020410_084703_raw.all.mb56.gz 28.02MB Simrad multibeam vendor format
0044_20020410_182315_raw.all.mb56.gz 16.57MB Simrad multibeam vendor format
0044_20020411_085413_raw.all.mb56.gz 22.86MB Simrad multibeam vendor format
0044_20020412_042624_raw.all.mb56.gz 4.15MB Simrad multibeam vendor format
0045_20020410_090223_raw.all.mb56.gz 5.69MB Simrad multibeam vendor format
0045_20020410_183113_raw.all.mb56.gz 2.42MB Simrad multibeam vendor format
0045_20020411_090752_raw.all.mb56.gz 4.66MB Simrad multibeam vendor format
0045_20020412_042859_raw.all.mb56.gz 16.85MB Simrad multibeam vendor format
0045_20020413_034826_raw.all.mb56.gz 6.73MB Simrad multibeam vendor format
0046_20020410_091030_raw.all.mb56.gz 10.06MB Simrad multibeam vendor format
0046_20020410_232757_raw.all.mb56.gz 28.58MB Simrad multibeam vendor format
0046_20020411_091043_raw.all.mb56.gz 16.60MB Simrad multibeam vendor format
0046_20020412_043823_raw.all.mb56.gz 3.87MB Simrad multibeam vendor format
0046_20020413_035209_raw.all.mb56.gz 3.27MB Simrad multibeam vendor format
0047_20020410_091627_raw.all.mb56.gz 19.87MB Simrad multibeam vendor format
0047_20020410_234132_raw.all.mb56.gz 91.81MB Simrad multibeam vendor format
0047_20020411_092029_raw.all.mb56.gz 5.80MB Simrad multibeam vendor format
0047_20020412_044044_raw.all.mb56.gz 15.55MB Simrad multibeam vendor format
0047_20020413_035351_raw.all.mb56.gz 1.62MB Simrad multibeam vendor format
0048_20020410_092729_raw.all.mb56.gz 6.84MB Simrad multibeam vendor format
0048_20020411_002822_raw.all.mb56.gz 49.93MB Simrad multibeam vendor format
0048_20020411_092353_raw.all.mb56.gz 15.34MB Simrad multibeam vendor format
0048_20020412_044954_raw.all.mb56.gz 4.21MB Simrad multibeam vendor format
0048_20020413_035442_raw.all.mb56.gz 10.95MB Simrad multibeam vendor format
0049_20020410_093122_raw.all.mb56.gz 11.85MB Simrad multibeam vendor format
0049_20020411_005723_raw.all.mb56.gz 16.89MB Simrad multibeam vendor format
0049_20020411_093314_raw.all.mb56.gz 5.57MB Simrad multibeam vendor format
0049_20020412_045231_raw.all.mb56.gz 16.70MB Simrad multibeam vendor format
0049_20020413_040046_raw.all.mb56.gz 26.65MB Simrad multibeam vendor format
0050_20020410_093818_raw.all.mb56.gz 6.01MB Simrad multibeam vendor format
0050_20020411_010728_raw.all.mb56.gz 8.24MB Simrad multibeam vendor format
0050_20020411_093638_raw.all.mb56.gz 16.70MB Simrad multibeam vendor format
0050_20020412_050158_raw.all.mb56.gz 4.45MB Simrad multibeam vendor format
0050_20020413_041430_raw.all.mb56.gz 5.03MB Simrad multibeam vendor format
0051_20020410_094154_raw.all.mb56.gz 6.36MB Simrad multibeam vendor format
0051_20020411_011332_raw.all.mb56.gz 2.91MB Simrad multibeam vendor format
0051_20020411_094623_raw.all.mb56.gz 4.60MB Simrad multibeam vendor format
0051_20020412_050427_raw.all.mb56.gz 15.74MB Simrad multibeam vendor format
0051_20020413_041707_raw.all.mb56.gz 24.74MB Simrad multibeam vendor format
0052_20020410_094534_raw.all.mb56.gz 7.55MB Simrad multibeam vendor format
0052_20020411_011531_raw.all.mb56.gz 8.78MB Simrad multibeam vendor format
0052_20020411_094905_raw.all.mb56.gz 15.02MB Simrad multibeam vendor format
0052_20020412_051339_raw.all.mb56.gz 3.90MB Simrad multibeam vendor format
0052_20020413_043034_raw.all.mb56.gz 5.46MB Simrad multibeam vendor format
0053_20020410_094949_raw.all.mb56.gz 4.48MB Simrad multibeam vendor format
0053_20020411_012110_raw.all.mb56.gz 3.40MB Simrad multibeam vendor format
0053_20020411_095821_raw.all.mb56.gz 66.01MB Simrad multibeam vendor format
0053_20020412_051610_raw.all.mb56.gz 16.89MB Simrad multibeam vendor format
0053_20020413_043336_raw.all.mb56.gz 26.35MB Simrad multibeam vendor format
0054_20020410_095224_raw.all.mb56.gz 6.25MB Simrad multibeam vendor format
0054_20020411_012311_raw.all.mb56.gz 8.22MB Simrad multibeam vendor format
0054_20020411_103659_raw.all.mb56.gz 1.41MB Simrad multibeam vendor format
0054_20020412_052542_raw.all.mb56.gz 2.86MB Simrad multibeam vendor format
0054_20020413_044708_raw.all.mb56.gz 4.67MB Simrad multibeam vendor format
0055_20020410_095611_raw.all.mb56.gz 5.42MB Simrad multibeam vendor format
0055_20020411_012902_raw.all.mb56.gz 2.89MB Simrad multibeam vendor format
0055_20020411_145012_raw.all.mb56.gz 77.98MB Simrad multibeam vendor format
0055_20020413_044936_raw.all.mb56.gz 25.00MB Simrad multibeam vendor format
0056_20020410_095911_raw.all.mb56.gz 5.87MB Simrad multibeam vendor format
0056_20020411_013103_raw.all.mb56.gz 8.60MB Simrad multibeam vendor format
0056_20020411_153846_raw.all.mb56.gz 10.03MB Simrad multibeam vendor format
0056_20020413_050313_raw.all.mb56.gz 4.29MB Simrad multibeam vendor format
0057_20020410_100228_raw.all.mb56.gz 3.41MB Simrad multibeam vendor format
0057_20020411_013637_raw.all.mb56.gz 5.13MB Simrad multibeam vendor format
0057_20020411_154524_raw.all.mb56.gz 0.52MB Simrad multibeam vendor format
0057_20020413_050544_raw.all.mb56.gz 9.43MB Simrad multibeam vendor format
0058_20020410_100422_raw.all.mb56.gz 6.84MB Simrad multibeam vendor format
0058_20020411_013948_raw.all.mb56.gz 8.41MB Simrad multibeam vendor format
0058_20020411_154831_raw.all.mb56.gz 2.76MB Simrad multibeam vendor format
0059_20020410_100828_raw.all.mb56.gz 3.39MB Simrad multibeam vendor format
0059_20020411_014535_raw.all.mb56.gz 2.89MB Simrad multibeam vendor format
0059_20020411_155019_raw.all.mb56.gz 8.95MB Simrad multibeam vendor format
0060_20020410_101025_raw.all.mb56.gz 8.50MB Simrad multibeam vendor format
0060_20020411_014737_raw.all.mb56.gz 8.57MB Simrad multibeam vendor format
0060_20020411_155651_raw.all.mb56.gz 38.7KB Simrad multibeam vendor format
0061_20020410_101511_raw.all.mb56.gz 1.67MB Simrad multibeam vendor format
0061_20020411_015314_raw.all.mb56.gz 3.26MB Simrad multibeam vendor format
0061_20020411_181105_raw.all.mb56.gz 1.85MB Simrad multibeam vendor format
0062_20020410_101608_raw.all.mb56.gz 24.80MB Simrad multibeam vendor format
0062_20020411_015517_raw.all.mb56.gz 8.20MB Simrad multibeam vendor format
0062_20020411_224735_raw.all.mb56.gz 7.02MB Simrad multibeam vendor format
0063_20020411_020111_raw.all.mb56.gz 11.66MB Simrad multibeam vendor format
0063_20020411_225153_raw.all.mb56.gz 16.74MB Simrad multibeam vendor format
0064_20020411_020821_raw.all.mb56.gz 9.17MB Simrad multibeam vendor format
0064_20020411_230141_raw.all.mb56.gz 7.29MB Simrad multibeam vendor format
0065_20020411_021400_raw.all.mb56.gz 48.78MB Simrad multibeam vendor format

Metadata Files: 1

Files File Size Description
USF2001Mudhole_Multibeam.xml NGDC created ISO metadata

Ancillary Files: 2

Files File Size Description
ctd.tar.gz 88.1KB Conductivity, Temperature, Depth (CTD) data
svp.tar.gz 3.0KB Sound Speed Profiles (SSP or SVP)